Tracking 32523 objects as of 13-Dec-2025
HD Live streaming from Space Station
objects crossing your sky now

STARLINK-1740

Track STARLINK-1740 now!
10-day predictions
STARLINK-1740 is classified as:


NORAD ID: 46566
Int'l Code: 2020-070AL
Perigee: 365.3 km
Apogee: 370.2 km
Inclination: 53.0 °
Period: 91.8 minutes
Semi major axis: 6738 km
RCS: Unknown
Launch date: October 6, 2020
Source: United States (US)
Launch site: AIR FORCE EASTERN TEST RANGE (AFETR)
Your satellite tracking list
Your tracking list is empty




NASA's NSSDC Master Catalog

Two Line Element Set (TLE):
1 46566U 20070AL  25347.00009259  .00299306  00000-0  24174-2 0  9991
2 46566  53.0494 151.8937 0003590  78.9492  20.5572 15.69401802  5938
Source of the keplerian elements: AFSPC